Flag for Germany Weather past 2 weeks in Güstrow, Mecklenburg-Western Pomerania, Germany

Now
50 °F

Drizzle. Fog.


Feels Like: 46 °F
Forecast: 42 / 52 °F
Wind: 12 mph from Southwest

Location: Laage

Current Time: Dec 18, 2014 at 4:52:41 PM

Latest Report: Dec 18, 2014 at 3:20 PM


Visibility: 3 mi

Pressure: 29.62 "Hg

Humidity: 94%

Dew point: 48 °F

Location of GüstrowLocation

Historic Weather in Güstrow — Graph

°F

Güstrow temperature yesterday

Maximum temperature yesterday: 39 °F (at 1:20 PM)
Minimum temperature yesterday: 32 °F (at 7:20 AM)
Average temperature yesterday: 36 °F

Past Weeks' High & Low Weather Summary

 TemperatureHumidityPressure
High52 °F (Dec 18, 2:20 PM)100% (Dec 5, 9:20 AM)30.30 "Hg (Dec 5, 9:20 AM)
Low28 °F (Dec 3, 3:20 PM)70% (Dec 10, 7:20 AM)29.18 "Hg (Dec 12, 3:20 PM)
Average37 °F90%29.87 "Hg
* Reported Dec 3 3:20 PM — Dec 18 3:20 PM, Güstrow, Weather by CustomWeather, © 2014

Note: Actual official high and low records may vary slightly from our data, if they occured in-between our weather recording intervals... More about our weather records

Advertising

Güstrow weather history for previous 24 hours

 ConditionsComfort  
Time TempWeatherWind HumidityBarometerVisibility
3:20 PM
Dec 18
50 °FDrizzle. Fog.12 mph94%29.62 "Hg3 mi
2:20 PM52 °FDrizzle. Partly sunny.12 mph88%29.62 "Hg4 mi
1:20 PM50 °FPartly sunny.10 mph94%29.65 "Hg5 mi
12:20 PM48 °FDrizzle. Fog.12 mph100%29.68 "Hg2 mi
11:20 AM48 °FDrizzle. Fog.9 mph94%29.68 "Hg3 mi
10:20 AM46 °FDrizzle. Fog.9 mph100%29.71 "Hg1 mi
9:20 AM46 °FFog.9 mph93%29.71 "Hg3 mi
8:20 AM45 °FPassing clouds.8 mph93%29.71 "Hg5 mi
7:20 AM45 °FPassing clouds.8 mph93%29.71 "HgN/A
6:20 AM45 °FPartly cloudy.10 mph93%29.68 "HgN/A
5:20 AM45 °FPassing clouds.9 mph93%29.68 "HgN/A
4:20 AM45 °FPassing clouds.8 mph93%29.68 "HgN/A
3:20 AM45 °FPassing clouds.10 mph93%29.65 "HgN/A
2:20 AM43 °FPassing clouds.8 mph93%29.65 "Hg4 mi
1:20 AM39 °FFog.7 mph100%29.62 "Hg1 mi
12:20 AM37 °FDrizzle. Fog.6 mph100%29.59 "Hg1 mi
11:20 PM
Dec 17
37 °FFog.6 mph100%29.59 "Hg3 mi
10:20 PM37 °FPassing clouds.5 mph93%29.59 "Hg4 mi
9:20 PM37 °FPassing clouds.6 mph93%29.59 "Hg4 mi
8:20 PM37 °FPassing clouds.5 mph93%29.56 "Hg4 mi
7:20 PM37 °FPassing clouds.7 mph93%29.56 "Hg4 mi
6:20 PM37 °FPassing clouds.6 mph93%29.56 "Hg4 mi
5:20 PM37 °FPassing clouds.6 mph93%29.56 "Hg4 mi
4:20 PM37 °FPassing clouds.6 mph93%29.56 "Hg5 mi
Weather by CustomWeather, © 2014

See weather overviewHow to use our weather pages